Time,TemperatureF,DewpointF,PressureIn,WindDirection,WindDirectionDegrees,WindSpeedMPH,WindSpeedGustMPH,Humidity,HourlyPrecipIn,Conditions,Clouds,dailyrainin,SoftwareType,DateUTC
2013-06-13 00:02:00,76.0,20.0,-100.00,SSW,192,12.0,19.0,12,-99.99,,,-99.99,,2013-06-13 06:02:00,
2013-06-13 00:11:00,76.0,20.0,-100.00,SSW,192,12.0,19.0,12,-99.99,,,-99.99,,2013-06-13 06:11:00,
2013-06-13 00:22:00,75.0,20.0,-100.00,SSE,160,15.0,34.0,12,-99.99,,,-99.99,,2013-06-13 06:22:00,
2013-06-13 00:44:00,75.0,21.0,-100.00,South,181,12.0,22.0,13,-99.99,,,-99.99,,2013-06-13 06:44:00,
2013-06-13 00:52:00,75.0,21.0,-100.00,South,181,12.0,22.0,13,-99.99,,,-99.99,,2013-06-13 06:52:00,
2013-06-13 01:01:00,75.0,21.0,-100.00,South,183,10.0,28.0,12,-99.99,,,-99.99,,2013-06-13 07:01:00,
2013-06-13 01:11:00,74.0,21.0,-100.00,SSW,197,11.0,18.0,13,-99.99,,,-99.99,,2013-06-13 07:11:00,
2013-06-13 01:22:00,74.0,21.0,-100.00,SSW,193,12.0,18.0,13,-99.99,,,-99.99,,2013-06-13 07:22:00,
2013-06-13 01:33:00,74.0,22.0,-100.00,SSW,197,11.0,18.0,13,-99.99,,,-99.99,,2013-06-13 07:33:00,
2013-06-13 01:42:00,74.0,22.0,-100.00,SSW,201,12.0,17.0,14,-99.99,,,-99.99,,2013-06-13 07:42:00,
2013-06-13 01:52:00,74.0,22.0,-100.00,South,179,12.0,23.0,14,-99.99,,,-99.99,,2013-06-13 07:52:00,
2013-06-13 02:01:00,73.0,22.0,-100.00,South,187,10.0,16.0,14,-99.99,,,-99.99,,2013-06-13 08:01:00,
2013-06-13 02:11:00,74.0,22.0,-100.00,SSW,209,16.0,22.0,14,-99.99,,,-99.99,,2013-06-13 08:11:00,
2013-06-13 02:22:00,74.0,22.0,-100.00,SSW,209,16.0,22.0,14,-99.99,,,-99.99,,2013-06-13 08:22:00,
2013-06-13 02:32:00,73.0,23.0,-100.00,SSW,203,12.0,15.0,15,-99.99,,,-99.99,,2013-06-13 08:32:00,
2013-06-13 02:42:00,73.0,23.0,-100.00,SSW,195,11.0,28.0,15,-99.99,,,-99.99,,2013-06-13 08:42:00,
2013-06-13 02:52:00,73.0,23.0,-100.00,SSW,195,11.0,28.0,15,-99.99,,,-99.99,,2013-06-13 08:52:00,
2013-06-13 03:01:00,73.0,24.0,-100.00,SSW,212,18.0,24.0,15,-99.99,,,-99.99,,2013-06-13 09:01:00,
2013-06-13 03:11:00,72.0,23.0,-100.00,SW,215,14.0,34.0,15,-99.99,,,-99.99,,2013-06-13 09:11:00,
2013-06-13 03:22:00,72.0,23.0,-100.00,SW,215,14.0,34.0,15,-99.99,,,-99.99,,2013-06-13 09:22:00,
2013-06-13 03:32:00,72.0,24.0,-100.00,SW,214,17.0,21.0,16,-99.99,,,-99.99,,2013-06-13 09:32:00,
2013-06-13 03:42:00,71.0,23.0,-100.00,SW,217,16.0,18.0,16,-99.99,,,-99.99,,2013-06-13 09:42:00,
2013-06-13 03:52:00,71.0,23.0,-100.00,SW,217,16.0,18.0,16,-99.99,,,-99.99,,2013-06-13 09:52:00,
2013-06-13 04:01:00,70.0,24.0,-100.00,SSW,196,10.0,15.0,17,-99.99,,,-99.99,,2013-06-13 10:01:00,
2013-06-13 04:11:00,71.0,24.0,-100.00,South,180,10.0,16.0,16,-99.99,,,-99.99,,2013-06-13 10:11:00,
2013-06-13 04:22:00,71.0,24.0,-100.00,South,180,10.0,16.0,16,-99.99,,,-99.99,,2013-06-13 10:22:00,
2013-06-13 04:33:00,72.0,24.0,-100.00,SSW,205,18.0,22.0,16,-99.99,,,-99.99,,2013-06-13 10:33:00,
2013-06-13 04:42:00,72.0,24.0,-100.00,SSW,205,18.0,22.0,16,-99.99,,,-99.99,,2013-06-13 10:42:00,
2013-06-13 04:53:00,72.0,24.0,-100.00,SSW,200,12.0,27.0,16,-99.99,,,-99.99,,2013-06-13 10:53:00,
2013-06-13 05:01:00,71.0,24.0,-100.00,SSW,203,11.0,22.0,17,-99.99,,,-99.99,,2013-06-13 11:01:00,
2013-06-13 05:11:00,72.0,24.0,-100.00,SSW,208,16.0,20.0,16,-99.99,,,-99.99,,2013-06-13 11:11:00,
2013-06-13 05:23:00,71.0,25.0,-100.00,South,188,6.0,16.0,17,-99.99,,,-99.99,,2013-06-13 11:23:00,
2013-06-13 05:32:00,71.0,25.0,-100.00,South,188,6.0,16.0,17,-99.99,,,-99.99,,2013-06-13 11:32:00,
2013-06-13 05:42:00,71.0,25.0,-100.00,SSW,212,6.0,18.0,18,-99.99,,,-99.99,,2013-06-13 11:42:00,
2013-06-13 05:52:00,71.0,25.0,-100.00,SSW,206,10.0,17.0,17,-99.99,,,-99.99,,2013-06-13 11:52:00,
2013-06-13 06:01:00,71.0,25.0,-100.00,SSW,192,12.0,18.0,17,-99.99,,,-99.99,,2013-06-13 12:01:00,
2013-06-13 06:22:00,72.0,25.0,-100.00,SW,228,24.0,32.0,17,-99.99,,,-99.99,,2013-06-13 12:22:00,
2013-06-13 06:34:00,70.0,32.0,-100.00,SSW,193,6.0,30.0,24,-99.99,,,-99.99,,2013-06-13 12:34:00,
2013-06-13 06:42:00,70.0,29.0,-100.00,SSW,210,17.0,21.0,21,-99.99,,,-99.99,,2013-06-13 12:42:00,
2013-06-13 06:52:00,71.0,28.0,-100.00,SSW,200,15.0,25.0,20,-99.99,,,-99.99,,2013-06-13 12:52:00,
2013-06-13 07:01:00,70.0,32.0,-100.00,SW,227,6.0,18.0,24,-99.99,,,-99.99,,2013-06-13 13:01:00,
2013-06-13 07:11:00,70.0,32.0,-100.00,SW,227,6.0,18.0,24,-99.99,,,-99.99,,2013-06-13 13:11:00,
2013-06-13 07:21:00,70.0,30.0,-100.00,SSW,211,17.0,21.0,22,-99.99,,,-99.99,,2013-06-13 13:21:00,
2013-06-13 07:32:00,70.0,31.0,-100.00,SSW,209,11.0,19.0,23,-99.99,,,-99.99,,2013-06-13 13:32:00,
2013-06-13 07:43:00,69.0,30.0,-100.00,SSW,201,8.0,15.0,22,-99.99,,,-99.99,,2013-06-13 13:43:00,
2013-06-13 07:53:00,69.0,30.0,-100.00,SSW,201,8.0,15.0,22,-99.99,,,-99.99,,2013-06-13 13:53:00,
2013-06-13 08:01:00,69.0,35.0,-100.00,South,183,6.0,17.0,28,-99.99,,,-99.99,,2013-06-13 14:01:00,
2013-06-13 08:11:00,69.0,35.0,-100.00,South,183,6.0,17.0,28,-99.99,,,-99.99,,2013-06-13 14:11:00,
2013-06-13 08:22:00,69.0,33.0,-100.00,South,182,7.0,13.0,26,-99.99,,,-99.99,,2013-06-13 14:22:00,
2013-06-13 08:33:00,68.0,35.0,-100.00,SSW,194,5.0,9.0,29,-99.99,,,-99.99,,2013-06-13 14:33:00,
2013-06-13 08:43:00,71.0,32.0,-100.00,SSW,194,10.0,13.0,22,-99.99,,,-99.99,,2013-06-13 14:43:00,
2013-06-13 08:53:00,71.0,32.0,-100.00,SSW,194,10.0,13.0,22,-99.99,,,-99.99,,2013-06-13 14:53:00,
2013-06-13 09:01:00,72.0,30.0,-100.00,SSW,197,16.0,19.0,20,-99.99,,,-99.99,,2013-06-13 15:01:00,
2013-06-13 09:11:00,73.0,27.0,-100.00,SSW,211,15.0,26.0,17,-99.99,,,-99.99,,2013-06-13 15:11:00,
2013-06-13 09:21:00,74.0,30.0,-100.00,SSW,206,12.0,27.0,20,-99.99,,,-99.99,,2013-06-13 15:21:00,
2013-06-13 09:33:00,74.0,30.0,-100.00,SSW,206,12.0,27.0,20,-99.99,,,-99.99,,2013-06-13 15:33:00,
2013-06-13 09:43:00,75.0,27.0,-100.00,SSW,196,9.0,18.0,16,-99.99,,,-99.99,,2013-06-13 15:43:00,
2013-06-13 09:53:00,75.0,27.0,-100.00,WSW,252,7.0,11.0,17,-99.99,,,-99.99,,2013-06-13 15:53:00,
2013-06-13 10:01:00,75.0,27.0,-100.00,SW,221,18.0,21.0,16,-99.99,,,-99.99,,2013-06-13 16:01:00,
2013-06-13 10:11:00,75.0,28.0,-100.00,SSW,210,13.0,23.0,17,-99.99,,,-99.99,,2013-06-13 16:11:00,
2013-06-13 10:22:00,75.0,28.0,-100.00,SSW,210,13.0,23.0,17,-99.99,,,-99.99,,2013-06-13 16:22:00,
2013-06-13 10:33:00,74.0,28.0,-100.00,SW,217,15.0,28.0,17,-99.99,,,-99.99,,2013-06-13 16:33:00,
2013-06-13 10:43:00,75.0,28.0,-100.00,South,181,12.0,27.0,17,-99.99,,,-99.99,,2013-06-13 16:43:00,
2013-06-13 10:53:00,75.0,28.0,-100.00,South,181,12.0,27.0,17,-99.99,,,-99.99,,2013-06-13 16:53:00,
2013-06-13 11:02:00,75.0,27.0,-100.00,South,187,18.0,37.0,17,-99.99,,,-99.99,,2013-06-13 17:02:00,
2013-06-13 11:11:00,75.0,27.0,-100.00,SSW,193,13.0,32.0,16,-99.99,,,-99.99,,2013-06-13 17:11:00,
2013-06-13 11:24:00,76.0,27.0,-100.00,South,186,17.0,35.0,16,-99.99,,,-99.99,,2013-06-13 17:24:00,
2013-06-13 11:32:00,76.0,27.0,-100.00,South,186,17.0,35.0,16,-99.99,,,-99.99,,2013-06-13 17:32:00,
2013-06-13 11:43:00,77.0,25.0,-100.00,SSW,196,21.0,34.0,14,-99.99,,,-99.99,,2013-06-13 17:43:00,
2013-06-13 11:53:00,77.0,25.0,-100.00,SSW,196,21.0,34.0,14,-99.99,,,-99.99,,2013-06-13 17:53:00,
2013-06-13 12:02:00,76.0,26.0,-100.00,South,185,22.0,34.0,15,-99.99,,,-99.99,,2013-06-13 18:02:00,
2013-06-13 12:11:00,77.0,26.0,-100.00,South,187,17.0,28.0,15,-99.99,,,-99.99,,2013-06-13 18:11:00,
2013-06-13 12:33:00,76.0,25.0,-100.00,SW,229,12.0,25.0,14,-99.99,,,-99.99,,2013-06-13 18:33:00,
2013-06-13 12:43:00,76.0,22.0,-100.00,South,189,21.0,33.0,12,-99.99,,,-99.99,,2013-06-13 18:43:00,
2013-06-13 12:52:00,76.0,22.0,-100.00,South,189,21.0,33.0,12,-99.99,,,-99.99,,2013-06-13 18:52:00,
2013-06-13 13:01:00,76.0,23.0,-100.00,SW,222,12.0,29.0,13,-99.99,,,-99.99,,2013-06-13 19:01:00,
2013-06-13 13:11:00,76.0,21.0,-100.00,South,188,16.0,30.0,12,-99.99,,,-99.99,,2013-06-13 19:11:00,
2013-06-13 13:22:00,78.0,22.0,-100.00,SSW,201,17.0,29.0,12,-99.99,,,-99.99,,2013-06-13 19:22:00,
2013-06-13 13:32:00,78.0,22.0,-100.00,SSW,201,17.0,29.0,12,-99.99,,,-99.99,,2013-06-13 19:32:00,
2013-06-13 13:43:00,78.0,22.0,-100.00,SSW,206,19.0,28.0,12,-99.99,,,-99.99,,2013-06-13 19:43:00,
2013-06-13 13:53:00,78.0,23.0,-100.00,South,188,14.0,33.0,12,-99.99,,,-99.99,,2013-06-13 19:53:00,
2013-06-13 14:01:00,79.0,22.0,-100.00,SW,214,17.0,31.0,11,-99.99,,,-99.99,,2013-06-13 20:01:00,
2013-06-13 14:11:00,78.0,21.0,-100.00,SSW,195,19.0,34.0,11,-99.99,,,-99.99,,2013-06-13 20:11:00,
2013-06-13 14:22:00,79.0,20.0,-100.00,South,184,18.0,33.0,10,-99.99,,,-99.99,,2013-06-13 20:22:00,
2013-06-13 14:32:00,79.0,20.0,-100.00,South,184,18.0,33.0,10,-99.99,,,-99.99,,2013-06-13 20:32:00,
2013-06-13 14:53:00,78.0,19.0,-100.00,SSW,208,20.0,28.0,10,-99.99,,,-99.99,,2013-06-13 20:53:00,
2013-06-13 15:01:00,78.0,19.0,-100.00,SSW,197,25.0,34.0,10,-99.99,,,-99.99,,2013-06-13 21:01:00,
2013-06-13 15:11:00,79.0,18.0,-100.00,SSW,203,14.0,32.0,10,-99.99,,,-99.99,,2013-06-13 21:11:00,
2013-06-13 15:22:00,80.0,19.0,-100.00,South,186,17.0,31.0,10,-99.99,,,-99.99,,2013-06-13 21:22:00,
2013-06-13 15:34:00,80.0,17.0,-100.00,SSW,208,26.0,31.0,9,-99.99,,,-99.99,,2013-06-13 21:34:00,
2013-06-13 15:43:00,79.0,17.0,-100.00,SSW,194,15.0,28.0,9,-99.99,,,-99.99,,2013-06-13 21:43:00,
2013-06-13 15:52:00,80.0,16.0,-100.00,South,177,20.0,32.0,9,-99.99,,,-99.99,,2013-06-13 21:52:00,
2013-06-13 16:22:00,80.0,18.0,-100.00,SSW,213,15.0,28.0,9,-99.99,,,-99.99,,2013-06-13 22:22:00,
2013-06-13 17:11:00,78.0,15.0,-100.00,South,188,23.0,34.0,9,-99.99,,,-99.99,,2013-06-13 23:11:00,
2013-06-13 17:22:00,80.0,14.0,-100.00,South,183,20.0,29.0,8,-99.99,,,-99.99,,2013-06-13 23:22:00,
2013-06-13 17:32:00,80.0,14.0,-100.00,South,183,20.0,29.0,8,-99.99,,,-99.99,,2013-06-13 23:32:00,
2013-06-13 17:43:00,79.0,15.0,-100.00,SSW,193,12.0,32.0,8,-99.99,,,-99.99,,2013-06-13 23:43:00,
2013-06-13 17:52:00,79.0,15.0,-100.00,SSW,193,12.0,32.0,8,-99.99,,,-99.99,,2013-06-13 23:52:00,
2013-06-13 18:01:00,80.0,13.0,-100.00,SW,229,14.0,26.0,7,-99.99,,,-99.99,,2013-06-14 00:01:00,
2013-06-13 18:33:00,78.0,14.0,-100.00,South,171,20.0,29.0,8,-99.99,,,-99.99,,2013-06-14 00:33:00,
2013-06-13 18:43:00,78.0,21.0,-100.00,SW,230,21.0,24.0,11,-99.99,,,-99.99,,2013-06-14 00:43:00,
2013-06-13 18:53:00,78.0,21.0,-100.00,SW,230,21.0,24.0,11,-99.99,,,-99.99,,2013-06-14 00:53:00,
2013-06-13 19:01:00,74.0,25.0,-100.00,West,267,20.0,24.0,15,-99.99,,,-99.99,,2013-06-14 01:01:00,
2013-06-13 19:11:00,70.0,32.0,-100.00,West,264,34.0,38.0,24,-99.99,,,-99.99,,2013-06-14 01:11:00,
2013-06-13 19:22:00,70.0,33.0,-100.00,West,263,36.0,42.0,25,-99.99,,,-99.99,,2013-06-14 01:22:00,
2013-06-13 19:32:00,70.0,33.0,-100.00,West,263,36.0,42.0,25,-99.99,,,-99.99,,2013-06-14 01:32:00,
2013-06-13 19:43:00,69.0,33.0,-100.00,West,269,32.0,35.0,26,-99.99,,,-99.99,,2013-06-14 01:43:00,
2013-06-13 19:52:00,69.0,33.0,-100.00,West,269,32.0,35.0,26,-99.99,,,-99.99,,2013-06-14 01:52:00,
2013-06-13 20:01:00,67.0,35.0,-100.00,West,281,30.0,38.0,30,-99.99,,,-99.99,,2013-06-14 02:01:00,
2013-06-13 20:11:00,67.0,36.0,-100.00,West,270,27.0,33.0,32,-99.99,,,-99.99,,2013-06-14 02:11:00,
2013-06-13 20:22:00,65.0,35.0,-100.00,West,275,27.0,31.0,32,-99.99,,,-99.99,,2013-06-14 02:22:00,
2013-06-13 20:32:00,65.0,35.0,-100.00,West,275,27.0,31.0,32,-99.99,,,-99.99,,2013-06-14 02:32:00,
2013-06-13 20:43:00,64.0,34.0,-100.00,WNW,291,20.0,30.0,33,-99.99,,,-99.99,,2013-06-14 02:43:00,
2013-06-13 20:52:00,62.0,33.0,-100.00,WNW,300,22.0,27.0,33,-99.99,,,-99.99,,2013-06-14 02:52:00,
2013-06-13 21:02:00,61.0,33.0,-100.00,WNW,303,21.0,30.0,34,-99.99,,,-99.99,,2013-06-14 03:02:00,
2013-06-13 21:11:00,61.0,33.0,-100.00,WNW,303,21.0,30.0,34,-99.99,,,-99.99,,2013-06-14 03:11:00,
2013-06-13 21:22:00,61.0,33.0,-100.00,WNW,296,23.0,26.0,35,-99.99,,,-99.99,,2013-06-14 03:22:00,
2013-06-13 21:34:00,60.0,33.0,-100.00,WNW,296,15.0,27.0,36,-99.99,,,-99.99,,2013-06-14 03:34:00,
2013-06-13 21:43:00,58.0,34.0,-100.00,West,275,12.0,14.0,40,-99.99,,,-99.99,,2013-06-14 03:43:00,
2013-06-13 21:52:00,58.0,34.0,-100.00,West,275,12.0,14.0,40,-99.99,,,-99.99,,2013-06-14 03:52:00,
2013-06-13 22:01:00,57.0,33.0,-100.00,West,271,16.0,16.0,40,-99.99,,,-99.99,,2013-06-14 04:01:00,
2013-06-13 22:12:00,56.0,34.0,-100.00,NNE,15,5.0,17.0,43,-99.99,,,-99.99,,2013-06-14 04:12:00,
2013-06-13 22:22:00,57.0,33.0,-100.00,NNE,30,8.0,13.0,40,-99.99,,,-99.99,,2013-06-14 04:22:00,
2013-06-13 22:33:00,57.0,33.0,-100.00,NNE,30,8.0,13.0,40,-99.99,,,-99.99,,2013-06-14 04:33:00,
2013-06-13 22:43:00,56.0,33.0,-100.00,NNE,12,7.0,10.0,41,-99.99,,,-99.99,,2013-06-14 04:43:00,
2013-06-13 22:53:00,56.0,33.0,-100.00,NNE,12,7.0,10.0,41,-99.99,,,-99.99,,2013-06-14 04:53:00,
2013-06-13 23:01:00,55.0,34.0,-100.00,NNE,19,8.0,10.0,43,-99.99,,,-99.99,,2013-06-14 05:01:00,
2013-06-13 23:11:00,55.0,34.0,-100.00,NNE,19,8.0,10.0,43,-99.99,,,-99.99,,2013-06-14 05:11:00,
2013-06-13 23:22:00,55.0,33.0,-100.00,NE,55,2.0,7.0,43,-99.99,,,-99.99,,2013-06-14 05:22:00,
2013-06-13 23:33:00,55.0,33.0,-100.00,SSW,209,1.0,4.0,43,-99.99,,,-99.99,,2013-06-14 05:33:00,
2013-06-13 23:43:00,54.0,33.0,-100.00,SE,143,4.0,7.0,44,-99.99,,,-99.99,,2013-06-14 05:43:00,
2013-06-13 23:52:00,54.0,33.0,-100.00,SE,143,4.0,7.0,44,-99.99,,,-99.99,,2013-06-14 05:52:00,